Regional Weather Roundup
Issued by NWS

Home | Current Version | Previous Version | Text Only | Print | Product List | Glossary On
Versions: 1 2 3 4 5 6 7 8 9 10 11 12 13 14 15 16 17 18 19 20 21 22 23 24 25 26 27 28 29 30 31 32 33 34 35 36 37 38 39 40 41 42 43 44 45 46 47 48 49 50
000
ASUS44 KOUN 282100
RWROK

WEATHER ROUNDUP FOR OKLAHOMA
NATIONAL WEATHER SERVICE NORMAN OK
400 PM CDT THU JUL 28 2016

NOTE: "FAIR" INDICATES FEW OR NO CLOUDS BELOW 12,000 FEET WITH NO
      SIGNIFICANT WEATHER AND/OR OBSTRUCTIONS TO VISIBILITY.

OKZ001>007-009>012-014-015-017-282200-
NORTHWEST OKLAHOMA AND THE PANHANDLE

CITY           SKY/WX    TMP DP  RH WIND       PRES   REMARKS
GAGE           PTSUNNY   97  60  29 VRB3      29.97F HX  97
GUYMON         SUNNY     93  59  31 S13G20    30.01F HX  92
ENID/WOODRING  PTSUNNY   77  70  78 NE9G32    29.91F THUNDER
$$

OKZ016-021>023-033>039-044-045-282200-
SOUTHWEST OKLAHOMA

CITY           SKY/WX    TMP DP  RH WIND       PRES   REMARKS
LAWTON/REGL    MOSUNNY   99  65  32 S7        29.91F HX 102
FREDERICK      MOSUNNY   97  68  38 VRB6      29.89F HX 102
CLINTON        SUNNY     98  61  29 S7        29.97F HX  98
HOBART         SUNNY     98  65  33 VRB7      29.94F HX 101
$$

OKZ018>020-024>031-282200-
CENTRAL OKLAHOMA

CITY           SKY/WX    TMP DP  RH WIND       PRES   REMARKS
OKLAHOMA CITY  MOSUNNY   93  70  46 VRB3      29.93F HX  99
OKC/WILEY POST PTSUNNY   94  70  45 VRB5      29.93F HX 100
STILLWATER     SUNNY     95  68  41 SE10      29.92F HX  99
GUTHRIE        PTSUNNY   94  71  47 SE9       29.91F HX 101
$$

OKZ008-013-054>072-282200-
NORTHEAST OKLAHOMA

CITY           SKY/WX    TMP DP  RH WIND       PRES   REMARKS
TULSA          PTSUNNY   93  73  52 NE9       29.89F HX 102
TULSA/JONES    SUNNY     96  75  50 S7        29.90F HX 108
PONCA CITY     CLOUDY    85  70  60 E20G29    29.93R
BARTLESVILLE   MOSUNNY   85  76  74 VRB3      29.94F HX  94
MUSKOGEE       MOSUNNY   92  73  53 SE6       29.90F HX 100
$$

OKZ032-040>043-046>053-073>077-282200-
SOUTH CENTRAL/SOUTHEAST OKLAHOMA

CITY           SKY/WX    TMP DP  RH WIND       PRES   REMARKS
ARDMORE/DWNTWN SUNNY     95  64  36 SE8       29.91F HX  97
MCALESTER      SUNNY     93  73  52 CALM      29.93F HX 102
$$




USA.gov is the U.S. government's official web portal to all federal, state and local government web resources and services.